START_TIME,STEP,MOV.,M35,t_acc.,PL05,t_acc.,PL06,t_acc.,PL07,t_acc.
1980-11-14 15:00:12.470 ,7,0,0.,4.8,1.,4.8,0.,4.8,0.,4.8
1980-11-14 15:00:17.270 ,7,0,0.,4.8,0.,4.8,1.,4.8,0.,4.8
1980-11-14 15:00:22.070 ,7,0,0.,4.8,0.,4.8,1.,4.8,2.,4.8
1980-11-14 15:00:26.870 ,7,0,0.,4.8,0.,4.8,0.,4.8,1.,4.8
1980-11-14 15:00:31.670 ,7,0,0.,4.8,0.,4.8,0.,4.8,1.,4.8
1980-11-14 15:00:36.470 ,6,0,0.,4.8,0.,4.8,1.,4.8,0.,4.8
1980-11-14 15:00:41.270 ,6,0,0.,4.8,2.,4.8,1.,4.8,1.,4.8
1980-11-14 15:00:46.070 ,6,0,0.,4.8,0.,4.8,0.,4.8,0.,4.8
1980-11-14 15:00:50.870 ,6,0,0.,4.8,1.,4.8,0.,4.8,0.,4.8
1980-11-14 15:00:55.670 ,6,0,0.,4.8,2.,4.8,0.,4.8,0.,4.8
1980-11-14 15:01:00.470 ,6,0,0.,4.8,0.,4.8,0.,4.8,0.,4.8
1980-11-14 15:01:05.270 ,6,0,0.,4.8,0.,4.8,0.,4.8,0.,4.8
1980-11-14 15:01:10.070 ,6,0,0.,4.8,0.,4.8,0.,4.8,0.,4.8
1980-11-14 15:01:14.870 ,6,0,0.,4.8,1.,4.8,0.,4.8,0.,4.8
1980-11-14 15:01:19.670 ,6,0,0.,4.8,0.,4.8,0.,4.8,0.,4.8
1980-11-14 15:01:24.470 ,5,0,0.,4.8,0.,4.8,0.,4.8,0.,4.8
1980-11-14 15:01:29.270 ,5,0,0.,4.8,0.,4.8,0.,4.8,0.,4.8
1980-11-14 15:01:34.070 ,5,0,0.,4.8,1.,4.8,0.,4.8,0.,4.8
1980-11-14 15:01:38.870 ,5,0,0.,4.8,0.,4.8,0.,4.8,0.,4.8
1980-11-14 15:01:43.670 ,5,0,0.,4.8,0.,4.8,1.,4.8,0.,4.8
1980-11-14 15:01:48.470 ,5,0,0.,4.8,1.,4.8,1.,4.8,0.,4.8
1980-11-14 15:01:53.270 ,5,0,0.,4.8,0.,4.8,0.,4.8,0.,4.8
1980-11-14 15:01:58.070 ,5,0,0.,4.8,0.,4.8,0.,4.8,0.,4.8
1980-11-14 15:02:02.870 ,5,0,0.,4.8,1.,4.8,0.,4.8,0.,4.8
1980-11-14 15:02:07.670 ,5,0,0.,4.8,1.,4.8,0.,4.8,1.,4.8
1980-11-14 15:02:12.470 ,4,0,0.,4.8,0.,4.8,0.,4.8,0.,4.8
1980-11-14 15:02:17.270 ,4,0,0.,4.8,1.,4.8,0.,4.8,0.,4.8
1980-11-14 15:02:22.070 ,4,0,0.,4.8,0.,4.8,1.,4.8,0.,4.8
1980-11-14 15:02:26.870 ,4,0,0.,4.8,2.,4.8,0.,4.8,0.,4.8
1980-11-14 15:02:31.670 ,4,0,0.,4.8,0.,4.8,2.,4.8,0.,4.8
1980-11-14 15:02:36.470 ,4,0,0.,4.8,1.,4.8,1.,4.8,0.,4.8
1980-11-14 15:02:41.270 ,4,0,0.,4.8,0.,4.8,0.,4.8,0.,4.8
1980-11-14 15:02:46.070 ,4,0,0.,4.8,0.,4.8,0.,4.8,0.,4.8
1980-11-14 15:02:50.870 ,4,0,0.,4.8,2.,4.8,0.,4.8,0.,4.8
1980-11-14 15:02:55.670 ,4,0,0.,4.8,0.,4.8,0.,4.8,0.,4.8
1980-11-14 15:03:00.470 ,3,0,0.,4.8,0.,4.8,0.,4.8,0.,4.8
1980-11-14 15:03:05.270 ,3,0,0.,4.8,0.,4.8,1.,4.8,0.,4.8
1980-11-14 15:03:10.070 ,3,0,0.,4.8,0.,4.8,0.,4.8,0.,4.8
1980-11-14 15:03:14.870 ,3,0,0.,4.8,0.,4.8,0.,4.8,0.,4.8
1980-11-14 15:03:19.670 ,3,0,0.,4.8,0.,4.8,0.,4.8,0.,4.8
1980-11-14 15:03:24.470 ,3,0,0.,4.8,2.,4.8,0.,4.8,0.,4.8
1980-11-14 15:03:29.270 ,3,0,0.,4.8,0.,4.8,0.,4.8,0.,4.8
1980-11-14 15:03:34.070 ,3,0,0.,4.8,1.,4.8,0.,4.8,1.,4.8
1980-11-14 15:03:38.870 ,3,0,0.,4.8,0.,4.8,0.,4.8,0.,4.8
1980-11-14 15:03:43.670 ,3,0,0.,4.8,0.,4.8,0.,4.8,0.,4.8
1980-11-14 15:03:48.470 ,2,0,0.,4.8,0.,4.8,0.,4.8,0.,4.8
1980-11-14 15:03:53.270 ,2,0,0.,4.8,1.,4.8,1.,4.8,0.,4.8
1980-11-14 15:03:58.070 ,2,0,0.,4.8,1.,4.8,0.,4.8,0.,4.8
1980-11-14 15:04:02.870 ,2,0,0.,4.8,0.,4.8,0.,4.8,0.,4.8
1980-11-14 15:04:07.670 ,2,0,0.,4.8,0.,4.8,0.,4.8,0.,4.8
1980-11-14 15:04:12.470 ,2,0,0.,4.8,1.,4.8,0.,4.8,0.,4.8
1980-11-14 15:04:17.270 ,2,0,0.,4.8,0.,4.8,0.,4.8,0.,4.8
1980-11-14 15:04:22.070 ,2,0,0.,4.8,0.,4.8,0.,4.8,0.,4.8
1980-11-14 15:04:26.870 ,2,0,0.,4.8,1.,4.8,2.,4.8,0.,4.8
1980-11-14 15:04:31.670 ,2,0,0.,4.8,1.,4.8,0.,4.8,0.,4.8
1980-11-14 15:04:36.470 ,1,0,0.,4.8,0.,4.8,0.,4.8,0.,4.8
1980-11-14 15:04:41.270 ,1,0,0.,4.8,0.,4.8,0.,4.8,0.,4.8
1980-11-14 15:04:46.070 ,1,0,0.,4.8,0.,4.8,0.,4.8,0.,4.8
1980-11-14 15:04:50.870 ,1,0,0.,4.8,1.,4.8,0.,4.8,0.,4.8
1980-11-14 15:04:55.670 ,1,0,0.,4.8,0.,4.8,0.,4.8,0.,4.8
1980-11-14 15:05:00.470 ,1,0,0.,4.8,0.,4.8,0.,4.8,0.,4.8
1980-11-14 15:05:05.270 ,1,0,0.,4.8,0.,4.8,0.,4.8,0.,4.8
1980-11-14 15:05:10.070 ,1,0,0.,4.8,0.,4.8,0.,4.8,0.,4.8
1980-11-14 15:05:14.870 ,1,0,0.,4.8,1.,4.8,0.,4.8,1.,4.8
1980-11-14 15:05:19.670 ,1,0,0.,4.8,2.,4.8,0.,4.8,0.,4.8
1980-11-14 15:05:24.470 ,0,0,0.,4.8,0.,4.8,0.,4.8,0.,4.8
1980-11-14 15:05:29.270 ,0,0,0.,4.8,1.,4.8,0.,4.8,0.,4.8
1980-11-14 15:05:34.070 ,0,0,0.,4.8,0.,4.8,0.,4.8,0.,4.8
1980-11-14 15:05:38.870 ,0,0,0.,4.8,1.,4.8,0.,4.8,0.,4.8
1980-11-14 15:05:43.670 ,0,0,0.,4.8,0.,4.8,1.,4.8,0.,4.8
1980-11-14 15:05:48.470 ,0,0,0.,4.8,0.,4.8,0.,4.8,0.,4.8
1980-11-14 15:05:53.270 ,0,0,0.,4.8,1.,4.8,0.,4.8,0.,4.8
1980-11-14 15:05:58.070 ,0,0,0.,4.8,1.,4.8,0.,4.8,0.,4.8
1980-11-14 15:06:02.870 ,0,0,0.,4.8,0.,4.8,0.,4.8,0.,4.8
1980-11-14 15:06:07.670 ,0,0,0.,4.8,0.,4.8,0.,4.8,0.,4.8
1980-11-14 15:06:12.470 ,0,0,0.,4.8,2.,4.8,0.,4.8,0.,4.8
1980-11-14 15:06:17.270 ,0,0,0.,4.8,0.,4.8,0.,4.8,0.,4.8
1980-11-14 15:06:22.070 ,0,0,0.,4.8,0.,4.8,0.,4.8,0.,4.8
1980-11-14 15:06:26.870 ,0,0,0.,4.8,0.,4.8,0.,4.8,0.,4.8
1980-11-14 15:06:31.670 ,0,0,0.,4.8,0.,4.8,0.,4.8,0.,4.8
1980-11-14 15:06:36.470 ,0,0,0.,4.8,0.,4.8,0.,4.8,0.,4.8
1980-11-14 15:06:41.270 ,0,0,0.,4.8,0.,4.8,0.,4.8,0.,4.8
1980-11-14 15:06:46.070 ,0,0,0.,4.8,1.,4.8,1.,4.8,0.,4.8
1980-11-14 15:06:50.870 ,0,0,0.,4.8,0.,4.8,0.,4.8,0.,4.8
1980-11-14 15:06:55.670 ,0,0,0.,4.8,2.,4.8,0.,4.8,0.,4.8
1980-11-14 15:07:00.470 ,1,0,0.,4.8,0.,4.8,0.,4.8,0.,4.8
1980-11-14 15:07:05.270 ,1,0,0.,4.8,0.,4.8,0.,4.8,1.,4.8
1980-11-14 15:07:10.070 ,1,0,0.,4.8,0.,4.8,0.,4.8,0.,4.8
1980-11-14 15:07:14.870 ,1,0,0.,4.8,0.,4.8,0.,4.8,0.,4.8
1980-11-14 15:07:19.670 ,1,0,0.,4.8,0.,4.8,0.,4.8,0.,4.8
1980-11-14 15:07:24.470 ,1,0,0.,4.8,0.,4.8,0.,4.8,0.,4.8
1980-11-14 15:07:29.270 ,1,0,0.,4.8,1.,4.8,0.,4.8,0.,4.8
1980-11-14 15:07:34.070 ,1,0,0.,4.8,0.,4.8,0.,4.8,0.,4.8
1980-11-14 15:07:38.870 ,1,0,0.,4.8,0.,4.8,0.,4.8,0.,4.8
1980-11-14 15:07:43.670 ,1,0,0.,4.8,0.,4.8,0.,4.8,0.,4.8
1980-11-14 15:07:48.470 ,2,0,0.,4.8,0.,4.8,0.,4.8,0.,4.8
1980-11-14 15:07:53.270 ,2,0,0.,4.8,0.,4.8,1.,4.8,0.,4.8
1980-11-14 15:07:58.070 ,2,0,0.,4.8,0.,4.8,0.,4.8,0.,4.8
1980-11-14 15:08:02.870 ,2,0,0.,4.8,0.,4.8,0.,4.8,0.,4.8
1980-11-14 15:08:07.670 ,2,0,0.,4.8,0.,4.8,0.,4.8,1.,4.8
1980-11-14 15:08:12.470 ,2,0,0.,4.8,0.,4.8,0.,4.8,0.,4.8
1980-11-14 15:08:17.270 ,2,0,0.,4.8,1.,4.8,0.,4.8,0.,4.8
1980-11-14 15:08:22.070 ,2,0,0.,4.8,2.,4.8,0.,4.8,0.,4.8
1980-11-14 15:08:26.870 ,2,0,0.,4.8,0.,4.8,1.,4.8,0.,4.8
1980-11-14 15:08:31.670 ,2,0,0.,4.8,0.,4.8,0.,4.8,0.,4.8
1980-11-14 15:08:36.470 ,3,0,0.,4.8,0.,4.8,0.,4.8,0.,4.8
1980-11-14 15:08:41.270 ,3,0,0.,4.8,0.,4.8,0.,4.8,0.,4.8
1980-11-14 15:08:46.070 ,3,0,0.,4.8,0.,4.8,1.,4.8,0.,4.8
1980-11-14 15:08:50.870 ,3,0,0.,4.8,0.,4.8,0.,4.8,0.,4.8
1980-11-14 15:08:55.670 ,3,0,0.,4.8,0.,4.8,0.,4.8,0.,4.8
1980-11-14 15:09:00.470 ,3,0,0.,4.8,0.,4.8,0.,4.8,0.,4.8
1980-11-14 15:09:05.270 ,3,0,0.,4.8,0.,4.8,0.,4.8,0.,4.8
1980-11-14 15:09:10.070 ,3,0,0.,4.8,1.,4.8,0.,4.8,0.,4.8
1980-11-14 15:09:14.870 ,3,0,0.,4.8,0.,4.8,0.,4.8,0.,4.8
1980-11-14 15:09:19.670 ,3,0,0.,4.8,0.,4.8,0.,4.8,0.,4.8
1980-11-14 15:09:24.470 ,4,0,0.,4.8,0.,4.8,0.,4.8,0.,4.8
1980-11-14 15:09:29.270 ,4,0,0.,4.8,0.,4.8,0.,4.8,0.,4.8
1980-11-14 15:09:34.070 ,4,0,0.,4.8,1.,4.8,0.,4.8,0.,4.8
1980-11-14 15:09:38.870 ,4,0,0.,4.8,1.,4.8,0.,4.8,0.,4.8
1980-11-14 15:09:43.670 ,4,0,0.,4.8,0.,4.8,0.,4.8,0.,4.8
1980-11-14 15:09:48.470 ,4,0,0.,4.8,0.,4.8,1.,4.8,0.,4.8
1980-11-14 15:09:53.270 ,4,0,0.,4.8,0.,4.8,0.,4.8,0.,4.8
1980-11-14 15:09:58.070 ,4,0,0.,4.8,2.,4.8,0.,4.8,0.,4.8
1980-11-14 15:10:02.870 ,4,0,0.,4.8,1.,4.8,0.,4.8,0.,4.8
1980-11-14 15:10:07.670 ,4,0,0.,4.8,2.,4.8,0.,4.8,0.,4.8
1980-11-14 15:10:12.470 ,5,0,0.,4.8,1.,4.8,1.,4.8,0.,4.8
1980-11-14 15:10:17.270 ,5,0,0.,4.8,0.,4.8,0.,4.8,0.,4.8
1980-11-14 15:10:22.070 ,5,0,0.,4.8,0.,4.8,1.,4.8,0.,4.8
1980-11-14 15:10:26.870 ,5,0,0.,4.8,0.,4.8,0.,4.8,0.,4.8
1980-11-14 15:10:31.670 ,5,0,0.,4.8,0.,4.8,0.,4.8,0.,4.8
1980-11-14 15:10:36.470 ,5,0,0.,4.8,0.,4.8,0.,4.8,0.,4.8
1980-11-14 15:10:41.270 ,5,0,0.,4.8,0.,4.8,0.,4.8,0.,4.8
1980-11-14 15:10:46.070 ,5,0,0.,4.8,0.,4.8,0.,4.8,0.,4.8
1980-11-14 15:10:50.870 ,5,0,0.,4.8,0.,4.8,0.,4.8,0.,4.8
1980-11-14 15:10:55.670 ,5,0,0.,4.8,0.,4.8,0.,4.8,0.,4.8
1980-11-14 15:11:00.470 ,6,0,0.,4.8,1.,4.8,0.,4.8,0.,4.8
1980-11-14 15:11:05.270 ,6,0,0.,4.8,2.,4.8,1.,4.8,0.,4.8
1980-11-14 15:11:10.070 ,6,0,0.,4.8,0.,4.8,0.,4.8,0.,4.8
1980-11-14 15:11:14.870 ,6,0,0.,4.8,0.,4.8,1.,4.8,0.,4.8
1980-11-14 15:11:19.670 ,6,0,0.,4.8,0.,4.8,0.,4.8,0.,4.8
1980-11-14 15:11:24.470 ,6,0,0.,4.8,0.,4.8,2.,4.8,0.,4.8
1980-11-14 15:11:29.270 ,6,0,0.,4.8,1.,4.8,0.,4.8,0.,4.8
1980-11-14 15:11:34.070 ,6,0,0.,4.8,0.,4.8,0.,4.8,0.,4.8
1980-11-14 15:11:38.870 ,6,0,0.,4.8,0.,4.8,0.,4.8,0.,4.8
1980-11-14 15:11:43.670 ,6,0,0.,4.8,0.,4.8,0.,4.8,0.,4.8
1980-11-14 15:11:48.470 ,7,0,0.,4.8,0.,4.8,0.,4.8,0.,4.8
1980-11-14 15:11:53.270 ,7,0,0.,4.8,0.,4.8,0.,4.8,1.,4.8
1980-11-14 15:11:58.070 ,7,0,0.,4.8,0.,4.8,0.,4.8,0.,4.8
1980-11-14 15:12:02.870 ,7,0,0.,4.8,0.,4.8,2.,4.8,1.,4.8
1980-11-14 15:12:07.670 ,7,0,0.,4.8,1.,4.8,1.,4.8,0.,4.8
1980-11-14 15:12:12.470 ,7,0,0.,4.8,1.,4.8,0.,4.8,0.,4.8
1980-11-14 15:12:17.270 ,7,0,0.,4.8,1.,4.8,0.,4.8,0.,4.8
1980-11-14 15:12:22.070 ,7,0,0.,4.8,0.,4.8,1.,4.8,2.,4.8
1980-11-14 15:12:26.870 ,7,0,0.,4.8,0.,4.8,1.,4.8,0.,4.8
1980-11-14 15:12:31.670 ,7,0,0.,4.8,0.,4.8,0.,4.8,0.,4.8
1980-11-14 15:12:36.470 ,7,0,0.,4.8,1.,4.8,0.,4.8,0.,4.8
1980-11-14 15:12:41.270 ,7,0,0.,4.8,0.,4.8,0.,4.8,3.,4.8
1980-11-14 15:12:46.070 ,7,0,0.,4.8,0.,4.8,0.,4.8,0.,4.8
1980-11-14 15:12:50.870 ,7,0,0.,4.8,1.,4.8,1.,4.8,0.,4.8
1980-11-14 15:12:55.670 ,7,0,0.,4.8,0.,4.8,1.,4.8,1.,4.8
1980-11-14 15:13:00.470 ,7,0,0.,4.8,3.,4.8,1.,4.8,0.,4.8
1980-11-14 15:13:05.270 ,7,0,0.,4.8,1.,4.8,0.,4.8,0.,4.8
1980-11-14 15:13:10.070 ,7,0,0.,4.8,0.,4.8,0.,4.8,0.,4.8
1980-11-14 15:13:14.870 ,7,0,0.,4.8,1.,4.8,0.,4.8,0.,4.8
1980-11-14 15:13:19.670 ,7,0,0.,4.8,0.,4.8,2.,4.8,1.,4.8
1980-11-14 15:13:24.470 ,6,0,0.,4.8,0.,4.8,0.,4.8,0.,4.8
1980-11-14 15:13:29.270 ,6,0,0.,4.8,0.,4.8,1.,4.8,0.,4.8
1980-11-14 15:13:34.070 ,6,0,0.,4.8,1.,4.8,0.,4.8,0.,4.8
1980-11-14 15:13:38.870 ,6,0,0.,4.8,0.,4.8,1.,4.8,0.,4.8
1980-11-14 15:13:43.670 ,6,0,0.,4.8,1.,4.8,0.,4.8,0.,4.8
1980-11-14 15:13:48.470 ,6,0,0.,4.8,0.,4.8,0.,4.8,1.,4.8
1980-11-14 15:13:53.270 ,6,0,0.,4.8,0.,4.8,1.,4.8,0.,4.8
1980-11-14 15:13:58.070 ,6,0,0.,4.8,0.,4.8,0.,4.8,0.,4.8
1980-11-14 15:14:02.870 ,6,0,0.,4.8,0.,4.8,0.,4.8,0.,4.8
1980-11-14 15:14:07.670 ,6,0,0.,4.8,2.,4.8,0.,4.8,0.,4.8
1980-11-14 15:14:12.470 ,5,0,0.,4.8,0.,4.8,1.,4.8,0.,4.8
1980-11-14 15:14:17.270 ,5,0,0.,4.8,1.,4.8,0.,4.8,0.,4.8
1980-11-14 15:14:22.070 ,5,0,0.,4.8,0.,4.8,0.,4.8,0.,4.8
1980-11-14 15:14:26.870 ,5,0,0.,4.8,2.,4.8,0.,4.8,0.,4.8
1980-11-14 15:14:31.670 ,5,0,0.,4.8,0.,4.8,0.,4.8,0.,4.8
1980-11-14 15:14:36.470 ,5,0,0.,4.8,2.,4.8,0.,4.8,0.,4.8
1980-11-14 15:14:41.270 ,5,0,0.,4.8,1.,4.8,0.,4.8,0.,4.8
1980-11-14 15:14:46.070 ,5,0,0.,4.8,0.,4.8,1.,4.8,0.,4.8
1980-11-14 15:14:50.870 ,5,0,0.,4.8,0.,4.8,0.,4.8,0.,4.8
1980-11-14 15:14:55.670 ,5,0,0.,4.8,0.,4.8,0.,4.8,0.,4.8
1980-11-14 15:15:00.470 ,4,0,0.,4.8,1.,4.8,0.,4.8,0.,4.8
1980-11-14 15:15:05.270 ,4,0,0.,4.8,1.,4.8,0.,4.8,0.,4.8
1980-11-14 15:15:10.070 ,4,0,0.,4.8,0.,4.8,0.,4.8,1.,4.8
1980-11-14 15:15:14.870 ,4,0,0.,4.8,0.,4.8,0.,4.8,0.,4.8
1980-11-14 15:15:19.670 ,4,0,0.,4.8,0.,4.8,0.,4.8,0.,4.8
1980-11-14 15:15:24.470 ,4,0,0.,4.8,0.,4.8,0.,4.8,1.,4.8
1980-11-14 15:15:29.270 ,4,0,0.,4.8,2.,4.8,0.,4.8,0.,4.8
1980-11-14 15:15:34.070 ,4,0,0.,4.8,1.,4.8,0.,4.8,0.,4.8
1980-11-14 15:15:38.870 ,4,0,0.,4.8,1.,4.8,0.,4.8,0.,4.8
1980-11-14 15:15:43.670 ,4,0,0.,4.8,1.,4.8,0.,4.8,0.,4.8
1980-11-14 15:15:48.470 ,3,0,0.,4.8,1.,4.8,0.,4.8,0.,4.8
1980-11-14 15:15:53.270 ,3,0,0.,4.8,1.,4.8,0.,4.8,1.,4.8
1980-11-14 15:15:58.070 ,3,0,0.,4.8,2.,4.8,1.,4.8,0.,4.8
1980-11-14 15:16:02.870 ,3,0,0.,4.8,1.,4.8,0.,4.8,0.,4.8
1980-11-14 15:16:07.670 ,3,0,0.,4.8,1.,4.8,0.,4.8,0.,4.8
1980-11-14 15:16:12.470 ,3,0,0.,4.8,0.,4.8,0.,4.8,0.,4.8
1980-11-14 15:16:17.270 ,3,0,0.,4.8,1.,4.8,0.,4.8,0.,4.8
1980-11-14 15:16:22.070 ,3,0,0.,4.8,0.,4.8,0.,4.8,1.,4.8
1980-11-14 15:16:26.870 ,3,0,0.,4.8,0.,4.8,0.,4.8,0.,4.8
1980-11-14 15:16:31.670 ,3,0,0.,4.8,0.,4.8,0.,4.8,0.,4.8
1980-11-14 15:16:36.470 ,2,0,0.,4.8,1.,4.8,0.,4.8,0.,4.8
1980-11-14 15:16:41.270 ,2,0,0.,4.8,0.,4.8,0.,4.8,0.,4.8
1980-11-14 15:16:46.070 ,2,0,0.,4.8,0.,4.8,0.,4.8,0.,4.8
1980-11-14 15:16:50.870 ,2,0,0.,4.8,0.,4.8,0.,4.8,0.,4.8
1980-11-14 15:16:55.670 ,2,0,0.,4.8,0.,4.8,0.,4.8,0.,4.8
1980-11-14 15:17:00.470 ,2,0,0.,4.8,0.,4.8,0.,4.8,0.,4.8
1980-11-14 15:17:05.270 ,2,0,0.,4.8,1.,4.8,0.,4.8,0.,4.8
1980-11-14 15:17:10.070 ,2,0,0.,4.8,0.,4.8,0.,4.8,1.,4.8
1980-11-14 15:17:14.870 ,2,0,0.,4.8,1.,4.8,0.,4.8,0.,4.8
1980-11-14 15:17:19.670 ,2,0,0.,4.8,2.,4.8,0.,4.8,0.,4.8
1980-11-14 15:17:24.470 ,1,0,0.,4.8,1.,4.8,0.,4.8,0.,4.8
1980-11-14 15:17:29.270 ,1,0,0.,4.8,1.,4.8,0.,4.8,0.,4.8
1980-11-14 15:17:34.070 ,1,0,0.,4.8,0.,4.8,0.,4.8,0.,4.8
1980-11-14 15:17:38.870 ,1,0,0.,4.8,0.,4.8,0.,4.8,0.,4.8
1980-11-14 15:17:43.670 ,1,0,0.,4.8,0.,4.8,0.,4.8,0.,4.8
1980-11-14 15:17:48.470 ,1,0,0.,4.8,0.,4.8,0.,4.8,0.,4.8
1980-11-14 15:17:53.270 ,1,0,0.,4.8,1.,4.8,0.,4.8,0.,4.8
1980-11-14 15:17:58.070 ,1,0,0.,4.8,0.,4.8,0.,4.8,0.,4.8
1980-11-14 15:18:02.870 ,1,0,0.,4.8,0.,4.8,0.,4.8,0.,4.8
1980-11-14 15:18:07.670 ,1,0,0.,4.8,0.,4.8,0.,4.8,1.,4.8
1980-11-14 15:18:12.470 ,0,0,0.,4.8,1.,4.8,0.,4.8,0.,4.8
1980-11-14 15:18:17.270 ,0,0,0.,4.8,0.,4.8,0.,4.8,0.,4.8
1980-11-14 15:18:22.070 ,0,0,0.,4.8,0.,4.8,0.,4.8,0.,4.8
1980-11-14 15:18:26.870 ,0,0,0.,4.8,2.,4.8,0.,4.8,0.,4.8
1980-11-14 15:18:31.670 ,0,0,0.,4.8,1.,4.8,1.,4.8,0.,4.8
1980-11-14 15:18:36.470 ,0,0,0.,4.8,0.,4.8,0.,4.8,0.,4.8
1980-11-14 15:18:41.270 ,0,0,0.,4.8,0.,4.8,0.,4.8,0.,4.8
1980-11-14 15:18:46.070 ,0,0,0.,4.8,0.,4.8,0.,4.8,0.,4.8
1980-11-14 15:18:50.870 ,0,0,0.,4.8,0.,4.8,0.,4.8,0.,4.8
1980-11-14 15:18:55.670 ,0,0,0.,4.8,0.,4.8,0.,4.8,0.,4.8
1980-11-14 15:19:00.470 ,0,0,0.,4.8,1.,4.8,0.,4.8,0.,4.8
1980-11-14 15:19:05.270 ,0,0,0.,4.8,0.,4.8,0.,4.8,0.,4.8
1980-11-14 15:19:10.070 ,0,0,0.,4.8,0.,4.8,0.,4.8,0.,4.8
1980-11-14 15:19:14.870 ,0,0,0.,4.8,0.,4.8,0.,4.8,1.,4.8
1980-11-14 15:19:19.670 ,0,0,0.,4.8,0.,4.8,1.,4.8,0.,4.8
1980-11-14 15:19:24.470 ,0,0,0.,4.8,1.,4.8,0.,4.8,0.,4.8
1980-11-14 15:19:29.270 ,0,0,0.,4.8,0.,4.8,0.,4.8,0.,4.8
1980-11-14 15:19:34.070 ,0,0,0.,4.8,0.,4.8,0.,4.8,0.,4.8
1980-11-14 15:19:38.870 ,0,0,0.,4.8,0.,4.8,1.,4.8,0.,4.8
1980-11-14 15:19:43.670 ,0,0,0.,4.8,0.,4.8,0.,4.8,0.,4.8
1980-11-14 15:19:48.470 ,1,0,0.,4.8,1.,4.8,1.,4.8,0.,4.8
1980-11-14 15:19:53.270 ,1,0,0.,4.8,0.,4.8,0.,4.8,0.,4.8
1980-11-14 15:19:58.070 ,1,0,0.,4.8,1.,4.8,0.,4.8,0.,4.8
1980-11-14 15:20:02.870 ,1,0,0.,4.8,2.,4.8,0.,4.8,0.,4.8
1980-11-14 15:20:07.670 ,1,0,0.,4.8,0.,4.8,0.,4.8,0.,4.8
1980-11-14 15:20:12.470 ,1,0,0.,4.8,1.,4.8,0.,4.8,0.,4.8
1980-11-14 15:20:17.270 ,1,0,0.,4.8,0.,4.8,0.,4.8,0.,4.8
1980-11-14 15:20:22.070 ,1,0,0.,4.8,1.,4.8,0.,4.8,0.,4.8
1980-11-14 15:20:26.870 ,1,0,0.,4.8,0.,4.8,0.,4.8,0.,4.8
1980-11-14 15:20:31.670 ,1,0,0.,4.8,0.,4.8,0.,4.8,0.,4.8
1980-11-14 15:20:36.470 ,2,0,0.,4.8,0.,4.8,0.,4.8,0.,4.8
1980-11-14 15:20:41.270 ,2,0,0.,4.8,0.,4.8,0.,4.8,0.,4.8
1980-11-14 15:20:46.070 ,2,0,0.,4.8,0.,4.8,0.,4.8,0.,4.8
1980-11-14 15:20:50.870 ,2,0,0.,4.8,1.,4.8,0.,4.8,0.,4.8
1980-11-14 15:20:55.670 ,2,0,0.,4.8,1.,4.8,0.,4.8,0.,4.8
1980-11-14 15:21:00.470 ,2,0,0.,4.8,1.,4.8,0.,4.8,0.,4.8
1980-11-14 15:21:05.270 ,2,0,0.,4.8,0.,4.8,0.,4.8,0.,4.8
1980-11-14 15:21:10.070 ,2,0,0.,4.8,2.,4.8,0.,4.8,0.,4.8
1980-11-14 15:21:14.870 ,2,0,0.,4.8,0.,4.8,0.,4.8,0.,4.8
1980-11-14 15:21:19.670 ,2,0,0.,4.8,1.,4.8,0.,4.8,0.,4.8
1980-11-14 15:21:24.470 ,3,0,0.,4.8,2.,4.8,0.,4.8,0.,4.8
1980-11-14 15:21:29.270 ,3,0,0.,4.8,2.,4.8,0.,4.8,0.,4.8
1980-11-14 15:21:34.070 ,3,0,0.,4.8,0.,4.8,0.,4.8,0.,4.8
1980-11-14 15:21:38.870 ,3,0,0.,4.8,0.,4.8,0.,4.8,0.,4.8
1980-11-14 15:21:43.670 ,3,0,0.,4.8,2.,4.8,0.,4.8,0.,4.8
1980-11-14 15:21:48.470 ,3,0,0.,4.8,2.,4.8,0.,4.8,0.,4.8
1980-11-14 15:21:53.270 ,3,0,0.,4.8,0.,4.8,1.,4.8,0.,4.8
1980-11-14 15:21:58.070 ,3,0,0.,4.8,0.,4.8,0.,4.8,0.,4.8
1980-11-14 15:22:02.870 ,3,0,0.,4.8,0.,4.8,0.,4.8,1.,4.8
1980-11-14 15:22:07.670 ,3,0,0.,4.8,1.,4.8,0.,4.8,0.,4.8
1980-11-14 15:22:12.470 ,4,0,0.,4.8,0.,4.8,1.,4.8,0.,4.8
1980-11-14 15:22:17.270 ,4,0,0.,4.8,0.,4.8,0.,4.8,0.,4.8
1980-11-14 15:22:22.070 ,4,0,0.,4.8,2.,4.8,0.,4.8,0.,4.8
1980-11-14 15:22:26.870 ,4,0,0.,4.8,1.,4.8,0.,4.8,0.,4.8
1980-11-14 15:22:31.670 ,4,0,0.,4.8,0.,4.8,0.,4.8,0.,4.8
1980-11-14 15:22:36.470 ,4,0,0.,4.8,0.,4.8,0.,4.8,0.,4.8
1980-11-14 15:22:41.270 ,4,0,0.,4.8,0.,4.8,0.,4.8,0.,4.8
1980-11-14 15:22:46.070 ,4,0,0.,4.8,0.,4.8,0.,4.8,0.,4.8
1980-11-14 15:22:50.870 ,4,0,0.,4.8,0.,4.8,0.,4.8,0.,4.8
1980-11-14 15:22:55.670 ,4,0,0.,4.8,0.,4.8,0.,4.8,0.,4.8
1980-11-14 15:23:00.470 ,5,0,0.,4.8,1.,4.8,0.,4.8,0.,4.8
1980-11-14 15:23:05.270 ,5,0,0.,4.8,0.,4.8,0.,4.8,0.,4.8
1980-11-14 15:23:10.070 ,5,0,0.,4.8,1.,4.8,0.,4.8,0.,4.8
1980-11-14 15:23:14.870 ,5,0,0.,4.8,1.,4.8,0.,4.8,0.,4.8
1980-11-14 15:23:19.670 ,5,0,0.,4.8,1.,4.8,0.,4.8,0.,4.8
1980-11-14 15:23:24.470 ,5,0,0.,4.8,1.,4.8,0.,4.8,0.,4.8
1980-11-14 15:23:29.270 ,5,0,0.,4.8,0.,4.8,0.,4.8,0.,4.8
1980-11-14 15:23:34.070 ,5,0,0.,4.8,0.,4.8,0.,4.8,0.,4.8
1980-11-14 15:23:38.870 ,5,0,0.,4.8,0.,4.8,0.,4.8,0.,4.8
1980-11-14 15:23:43.670 ,5,0,0.,4.8,0.,4.8,0.,4.8,0.,4.8
1980-11-14 15:23:48.470 ,6,0,0.,4.8,1.,4.8,0.,4.8,0.,4.8
1980-11-14 15:23:53.270 ,6,0,0.,4.8,2.,4.8,0.,4.8,1.,4.8
1980-11-14 15:23:58.070 ,6,0,0.,4.8,0.,4.8,0.,4.8,0.,4.8
1980-11-14 15:24:02.870 ,6,0,0.,4.8,1.,4.8,0.,4.8,0.,4.8
1980-11-14 15:24:07.670 ,6,0,0.,4.8,0.,4.8,0.,4.8,0.,4.8
1980-11-14 15:24:12.470 ,6,0,0.,4.8,1.,4.8,1.,4.8,0.,4.8
1980-11-14 15:24:17.270 ,6,0,0.,4.8,0.,4.8,0.,4.8,0.,4.8
1980-11-14 15:24:22.070 ,6,0,1.,4.8,0.,4.8,0.,4.8,0.,4.8
1980-11-14 15:24:26.870 ,6,0,0.,4.8,0.,4.8,0.,4.8,0.,4.8
1980-11-14 15:24:31.670 ,6,0,0.,4.8,1.,4.8,0.,4.8,0.,4.8
1980-11-14 15:24:36.470 ,7,0,0.,4.8,0.,4.8,0.,4.8,0.,4.8
1980-11-14 15:24:41.270 ,7,0,0.,4.8,0.,4.8,0.,4.8,0.,4.8
1980-11-14 15:24:46.070 ,7,0,0.,4.8,0.,4.8,1.,4.8,0.,4.8
1980-11-14 15:24:50.870 ,7,0,0.,4.8,1.,4.8,0.,4.8,2.,4.8
1980-11-14 15:24:55.670 ,7,0,0.,4.8,0.,4.8,0.,4.8,0.,4.8
1980-11-14 15:25:00.470 ,7,0,0.,4.8,0.,4.8,0.,4.8,0.,4.8
1980-11-14 15:25:05.270 ,7,0,0.,4.8,0.,4.8,0.,4.8,1.,4.8
1980-11-14 15:25:10.070 ,7,0,0.,4.8,0.,4.8,0.,4.8,0.,4.8
1980-11-14 15:25:14.870 ,7,0,0.,4.8,1.,4.8,1.,4.8,1.,4.8
1980-11-14 15:25:19.670 ,7,0,0.,4.8,0.,4.8,1.,4.8,1.,4.8
1980-11-14 15:25:24.470 ,7,0,0.,4.8,0.,4.8,1.,4.8,0.,4.8
1980-11-14 15:25:29.270 ,7,0,0.,4.8,0.,4.8,0.,4.8,1.,4.8
1980-11-14 15:25:34.070 ,7,0,0.,4.8,0.,4.8,1.,4.8,0.,4.8
1980-11-14 15:25:38.870 ,7,0,0.,4.8,0.,4.8,1.,4.8,1.,4.8
1980-11-14 15:25:43.670 ,7,0,0.,4.8,0.,4.8,0.,4.8,0.,4.8
1980-11-14 15:25:48.470 ,7,0,0.,4.8,1.,4.8,0.,4.8,0.,4.8
1980-11-14 15:25:53.270 ,7,0,0.,4.8,0.,4.8,1.,4.8,0.,4.8
1980-11-14 15:25:58.070 ,7,0,0.,4.8,0.,4.8,2.,4.8,1.,4.8
1980-11-14 15:26:02.870 ,7,0,0.,4.8,1.,4.8,0.,4.8,0.,4.8
1980-11-14 15:26:07.670 ,7,0,0.,4.8,0.,4.8,1.,4.8,0.,4.8
1980-11-14 15:26:12.470 ,6,0,0.,4.8,0.,4.8,1.,4.8,0.,4.8
1980-11-14 15:26:17.270 ,6,0,0.,4.8,0.,4.8,1.,4.8,0.,4.8
1980-11-14 15:26:22.070 ,6,0,0.,4.8,0.,4.8,0.,4.8,0.,4.8
1980-11-14 15:26:26.870 ,6,0,0.,4.8,0.,4.8,0.,4.8,0.,4.8
1980-11-14 15:26:31.670 ,6,0,0.,4.8,0.,4.8,0.,4.8,0.,4.8
1980-11-14 15:26:36.470 ,6,0,0.,4.8,1.,4.8,1.,4.8,1.,4.8
1980-11-14 15:26:41.270 ,6,0,0.,4.8,0.,4.8,0.,4.8,0.,4.8
1980-11-14 15:26:46.070 ,6,0,0.,4.8,0.,4.8,0.,4.8,0.,4.8
1980-11-14 15:26:50.870 ,6,0,0.,4.8,0.,4.8,0.,4.8,0.,4.8
1980-11-14 15:26:55.670 ,6,0,0.,4.8,0.,4.8,0.,4.8,0.,4.8
1980-11-14 15:27:00.470 ,5,0,0.,4.8,0.,4.8,0.,4.8,0.,4.8
1980-11-14 15:27:05.270 ,5,0,0.,4.8,0.,4.8,0.,4.8,0.,4.8
1980-11-14 15:27:10.070 ,5,0,0.,4.8,0.,4.8,0.,4.8,1.,4.8
1980-11-14 15:27:14.870 ,5,0,0.,4.8,1.,4.8,0.,4.8,0.,4.8
1980-11-14 15:27:19.670 ,5,0,0.,4.8,1.,4.8,0.,4.8,0.,4.8
1980-11-14 15:27:24.470 ,5,0,0.,4.8,0.,4.8,0.,4.8,0.,4.8
1980-11-14 15:27:29.270 ,5,0,0.,4.8,2.,4.8,1.,4.8,0.,4.8
1980-11-14 15:27:34.070 ,5,0,0.,4.8,0.,4.8,0.,4.8,1.,4.8
1980-11-14 15:27:38.870 ,5,0,0.,4.8,0.,4.8,1.,4.8,0.,4.8
1980-11-14 15:27:43.670 ,5,0,0.,4.8,0.,4.8,0.,4.8,0.,4.8
1980-11-14 15:27:48.470 ,4,0,0.,4.8,1.,4.8,0.,4.8,0.,4.8
1980-11-14 15:27:53.270 ,4,0,0.,4.8,2.,4.8,0.,4.8,0.,4.8
1980-11-14 15:27:58.070 ,4,0,0.,4.8,1.,4.8,1.,4.8,0.,4.8
1980-11-14 15:28:02.870 ,4,0,0.,4.8,0.,4.8,0.,4.8,0.,4.8
1980-11-14 15:28:07.670 ,4,0,0.,4.8,2.,4.8,1.,4.8,0.,4.8
1980-11-14 15:28:12.470 ,4,0,0.,4.8,4.,4.8,1.,4.8,0.,4.8
1980-11-14 15:28:17.270 ,4,0,0.,4.8,0.,4.8,0.,4.8,0.,4.8
1980-11-14 15:28:22.070 ,4,0,0.,4.8,1.,4.8,0.,4.8,0.,4.8
1980-11-14 15:28:26.870 ,4,0,0.,4.8,0.,4.8,0.,4.8,0.,4.8
1980-11-14 15:28:31.670 ,4,0,0.,4.8,0.,4.8,0.,4.8,0.,4.8
1980-11-14 15:28:36.470 ,3,0,0.,4.8,0.,4.8,0.,4.8,0.,4.8
1980-11-14 15:28:41.270 ,3,0,0.,4.8,0.,4.8,0.,4.8,0.,4.8
1980-11-14 15:28:46.070 ,3,0,0.,4.8,0.,4.8,1.,4.8,0.,4.8
1980-11-14 15:28:50.870 ,3,0,0.,4.8,1.,4.8,0.,4.8,0.,4.8
1980-11-14 15:28:55.670 ,3,0,0.,4.8,0.,4.8,0.,4.8,0.,4.8
1980-11-14 15:29:00.470 ,3,0,0.,4.8,0.,4.8,1.,4.8,0.,4.8
1980-11-14 15:29:05.270 ,3,0,0.,4.8,0.,4.8,0.,4.8,0.,4.8
1980-11-14 15:29:10.070 ,3,0,0.,4.8,0.,4.8,0.,4.8,0.,4.8
1980-11-14 15:29:14.870 ,3,0,0.,4.8,1.,4.8,0.,4.8,0.,4.8
1980-11-14 15:29:19.670 ,3,0,0.,4.8,1.,4.8,1.,4.8,0.,4.8
1980-11-14 15:29:24.470 ,2,0,0.,4.8,0.,4.8,0.,4.8,0.,4.8
1980-11-14 15:29:29.270 ,2,0,0.,4.8,1.,4.8,0.,4.8,0.,4.8
1980-11-14 15:29:34.070 ,2,0,0.,4.8,0.,4.8,0.,4.8,0.,4.8
1980-11-14 15:29:38.870 ,2,0,0.,4.8,0.,4.8,0.,4.8,0.,4.8
1980-11-14 15:29:43.670 ,2,0,0.,4.8,0.,4.8,0.,4.8,0.,4.8
1980-11-14 15:29:48.470 ,2,0,0.,4.8,1.,4.8,0.,4.8,0.,4.8
1980-11-14 15:29:53.270 ,2,0,0.,4.8,2.,4.8,0.,4.8,0.,4.8
1980-11-14 15:29:58.070 ,2,0,0.,4.8,0.,4.8,0.,4.8,0.,4.8
1980-11-14 15:30:02.870 ,2,0,0.,4.8,0.,4.8,0.,4.8,0.,4.8
1980-11-14 15:30:07.670 ,2,0,0.,4.8,0.,4.8,0.,4.8,0.,4.8
1980-11-14 15:30:12.470 ,1,0,0.,4.8,1.,4.8,0.,4.8,0.,4.8
1980-11-14 15:30:17.270 ,1,0,0.,4.8,1.,4.8,0.,4.8,0.,4.8
1980-11-14 15:30:22.070 ,1,0,0.,4.8,0.,4.8,0.,4.8,0.,4.8
1980-11-14 15:30:26.870 ,1,0,0.,4.8,1.,4.8,0.,4.8,0.,4.8
1980-11-14 15:30:31.670 ,1,0,0.,4.8,2.,4.8,0.,4.8,0.,4.8
1980-11-14 15:30:36.470 ,1,0,0.,4.8,0.,4.8,0.,4.8,0.,4.8
1980-11-14 15:30:41.270 ,1,0,0.,4.8,0.,4.8,0.,4.8,0.,4.8
1980-11-14 15:30:46.070 ,1,0,0.,4.8,1.,4.8,1.,4.8,0.,4.8
1980-11-14 15:30:50.870 ,1,0,0.,4.8,0.,4.8,0.,4.8,0.,4.8
1980-11-14 15:30:55.670 ,1,0,0.,4.8,0.,4.8,0.,4.8,0.,4.8
1980-11-14 15:31:00.470 ,0,0,0.,4.8,0.,4.8,0.,4.8,0.,4.8
1980-11-14 15:31:05.270 ,0,0,0.,4.8,0.,4.8,1.,4.8,0.,4.8
1980-11-14 15:31:10.070 ,0,0,0.,4.8,1.,4.8,0.,4.8,0.,4.8
1980-11-14 15:31:14.870 ,0,0,0.,4.8,0.,4.8,0.,4.8,0.,4.8
1980-11-14 15:31:19.670 ,0,0,0.,4.8,0.,4.8,1.,4.8,0.,4.8
1980-11-14 15:31:24.470 ,0,0,0.,4.8,1.,4.8,0.,4.8,0.,4.8
1980-11-14 15:31:29.270 ,0,0,0.,4.8,0.,4.8,0.,4.8,0.,4.8
1980-11-14 15:31:34.070 ,0,0,0.,4.8,2.,4.8,0.,4.8,0.,4.8
1980-11-14 15:31:38.870 ,0,0,0.,4.8,1.,4.8,0.,4.8,0.,4.8
1980-11-14 15:31:43.670 ,0,0,0.,4.8,0.,4.8,1.,4.8,0.,4.8
1980-11-14 15:31:48.470 ,0,0,0.,4.8,0.,4.8,0.,4.8,0.,4.8
1980-11-14 15:31:53.270 ,0,0,0.,4.8,1.,4.8,0.,4.8,0.,4.8
1980-11-14 15:31:58.070 ,0,0,0.,4.8,1.,4.8,0.,4.8,0.,4.8
1980-11-14 15:32:02.870 ,0,0,0.,4.8,1.,4.8,1.,4.8,0.,4.8
1980-11-14 15:32:07.670 ,0,0,0.,4.8,1.,4.8,0.,4.8,0.,4.8
1980-11-14 15:32:12.470 ,0,0,0.,4.8,0.,4.8,0.,4.8,0.,4.8
1980-11-14 15:32:17.270 ,0,0,0.,4.8,1.,4.8,0.,4.8,0.,4.8
1980-11-14 15:32:22.070 ,0,0,0.,4.8,0.,4.8,0.,4.8,0.,4.8
1980-11-14 15:32:26.870 ,0,0,0.,4.8,1.,4.8,0.,4.8,0.,4.8
1980-11-14 15:32:31.670 ,0,0,0.,4.8,0.,4.8,0.,4.8,0.,4.8
1980-11-14 15:32:36.470 ,1,0,0.,4.8,2.,4.8,0.,4.8,0.,4.8
1980-11-14 15:32:41.270 ,1,0,0.,4.8,0.,4.8,1.,4.8,0.,4.8
1980-11-14 15:32:46.070 ,1,0,0.,4.8,0.,4.8,0.,4.8,0.,4.8
1980-11-14 15:32:50.870 ,1,0,0.,4.8,1.,4.8,0.,4.8,0.,4.8
1980-11-14 15:32:55.670 ,1,0,0.,4.8,1.,4.8,2.,4.8,0.,4.8
1980-11-14 15:33:00.470 ,1,0,0.,4.8,2.,4.8,0.,4.8,0.,4.8
1980-11-14 15:33:05.270 ,1,0,0.,4.8,2.,4.8,0.,4.8,0.,4.8